When you browse on this site, cookies collect data to enhance your experience and personalize the content and advertising you see.
Visit our Privacy Policy to learn more. By continuing to use the site, you agree to this use of cookies and data.
  • In United Kingdom
  • List of Countries
  • For 7 days
  • Water Temperature
  • Weather Map
  • Weather Widgets
  • user-avatar
    Login

    Hourly Weather Pleven

    Today, 15 December, Sunday

    Time Temperature Precipitation Wind Pressure Humidity
    00:00 +8°C° 0.1 mm 2 mps 741 mmHg 89%
    01:00 +8°C° 0.1 mm 2 mps 741 mmHg 88%
    02:00 +8°C° 0 mm 2 mps 742 mmHg 88%
    03:00 +7°C° 0 mm 2 mps 742 mmHg 86%
    04:00 +7°C° 0 mm 3 mps 743 mmHg 84%
    05:00 +7°C° 0 mm 3 mps 744 mmHg 82%
    06:00 +7°C° 0 mm 3 mps 744 mmHg 79%
    07:00 +7°C° 0 mm 2 mps 745 mmHg 76%
    08:00 +6°C° 0 mm 2 mps 746 mmHg 74%
    09:00 +8°C° 0 mm 2 mps 746 mmHg 67%
    10:00 +9°C° 0 mm 2 mps 747 mmHg 60%
    11:00 +12°C° 0 mm 2 mps 747 mmHg 53%
    12:00 +13°C° 0 mm 2 mps 747 mmHg 48%
    13:00 +14°C° 0 mm 2 mps 747 mmHg 42%
    14:00 +16°C° 0 mm 1 mps 747 mmHg 35%
    15:00 +14°C° 0 mm 1 mps 747 mmHg 39%
    16:00 +13°C° 0 mm 1 mps 747 mmHg 43%
    17:00 +12°C° 0 mm 2 mps 748 mmHg 47%
    18:00 +10°C° 0 mm 2 mps 748 mmHg 49%
    19:00 +9°C° 0 mm 2 mps 748 mmHg 50%
    20:00 +9°C° 0 mm 2 mps 749 mmHg 51%
    21:00 +8°C° 0 mm 2 mps 749 mmHg 51%
    22:00 +8°C° 0 mm 2 mps 749 mmHg 52%
    23:00 +9°C° 0 mm 1 mps 750 mmHg 52%

    Tomorrow, 16 December, Monday

    Time Temperature Precipitation Wind Pressure Humidity
    00:00 +9°C° 0 mm 1 mps 750 mmHg 54%
    01:00 +8°C° 0 mm 1 mps 750 mmHg 56%
    02:00 +8°C° 0 mm 1 mps 750 mmHg 58%
    03:00 +8°C° 0 mm 1 mps 750 mmHg 59%
    04:00 +8°C° 0 mm 1 mps 750 mmHg 61%
    05:00 +7°C° 0 mm 1 mps 750 mmHg 62%
    06:00 +7°C° 0 mm 1 mps 750 mmHg 62%
    07:00 +7°C° 0 mm 1 mps 750 mmHg 62%
    08:00 +7°C° 0 mm 1 mps 750 mmHg 62%
    09:00 +8°C° 0 mm 0 mps 751 mmHg 58%
    10:00 +9°C° 0 mm 0 mps 751 mmHg 53%
    11:00 +11°C° 0 mm 0 mps 751 mmHg 49%
    12:00 +12°C° 0 mm 0 mps 751 mmHg 48%
    13:00 +13°C° 0 mm 1 mps 750 mmHg 46%
    14:00 +14°C° 0 mm 1 mps 750 mmHg 45%
    15:00 +13°C° 0 mm 1 mps 750 mmHg 49%
    16:00 +12°C° 0 mm 1 mps 750 mmHg 54%
    17:00 +9°C° 0 mm 0 mps 750 mmHg 58%
    18:00 +9°C° 0 mm 0 mps 750 mmHg 58%
    19:00 +9°C° 0 mm 0 mps 750 mmHg 58%
    20:00 +10°C° 0 mm 1 mps 750 mmHg 58%
    21:00 +8°C° 0 mm 0 mps 750 mmHg 58%
    22:00 +8°C° 0 mm 0 mps 750 mmHg 58%
    23:00 +8°C° 0 mm 0 mps 750 mmHg 58%

    Day after tomorrow, 17 December, Tuesday

    Time Temperature Precipitation Wind Pressure Humidity
    00:00 +8°C° 0 mm 0 mps 750 mmHg 59%
    01:00 +7°C° 0 mm 0 mps 750 mmHg 59%
    02:00 +7°C° 0 mm 0 mps 750 mmHg 60%
    03:00 +7°C° 0 mm 0 mps 750 mmHg 60%
    04:00 +7°C° 0 mm 0 mps 750 mmHg 60%
    05:00 +7°C° 0 mm 0 mps 749 mmHg 61%
    06:00 +6°C° 0 mm 0 mps 750 mmHg 61%
    07:00 +6°C° 0 mm 0 mps 750 mmHg 61%
    08:00 +6°C° 0 mm 0 mps 750 mmHg 61%
    09:00 +8°C° 0 mm 0 mps 750 mmHg 57%
    10:00 +10°C° 0 mm 0 mps 750 mmHg 53%
    11:00 +11°C° 0 mm 0 mps 750 mmHg 48%
    12:00 +12°C° 0 mm 0 mps 750 mmHg 47%
    13:00 +13°C° 0 mm 0 mps 749 mmHg 46%
    14:00 +13°C° 0 mm 0 mps 749 mmHg 44%
    15:00 +12°C° 0 mm 0 mps 749 mmHg 49%
    16:00 +11°C° 0 mm 0 mps 749 mmHg 53%
    17:00 +10°C° 0 mm 0 mps 749 mmHg 57%
    18:00 +10°C° 0 mm 0 mps 749 mmHg 57%
    19:00 +9°C° 0 mm 0 mps 749 mmHg 57%
    20:00 +9°C° 0 mm 0 mps 749 mmHg 57%
    21:00 +9°C° 0 mm 0 mps 750 mmHg 57%
    22:00 +9°C° 0 mm 0 mps 750 mmHg 56%
    23:00 +9°C° 0 mm 0 mps 750 mmHg 56%

    18 December, Wednesday

    Time Temperature Precipitation Wind Pressure Humidity
    00:00 +8°C° 0 mm 0 mps 750 mmHg 56%
    01:00 +8°C° 0 mm 0 mps 749 mmHg 57%
    02:00 +8°C° 0 mm 0 mps 749 mmHg 57%
    03:00 +8°C° 0 mm 0 mps 749 mmHg 57%
    04:00 +8°C° 0 mm 0 mps 749 mmHg 57%
    05:00 +7°C° 0 mm 0 mps 749 mmHg 58%
    06:00 +7°C° 0 mm 0 mps 749 mmHg 58%
    07:00 +7°C° 0 mm 0 mps 749 mmHg 59%
    08:00 +7°C° 0 mm 0 mps 749 mmHg 59%
    09:00 +9°C° 0 mm 0 mps 749 mmHg 55%
    10:00 +10°C° 0 mm 0 mps 750 mmHg 50%
    11:00 +12°C° 0 mm 0 mps 750 mmHg 46%
    12:00 +13°C° 0 mm 0 mps 749 mmHg 44%
    13:00 +15°C° 0 mm 1 mps 749 mmHg 42%
    14:00 +15°C° 0 mm 1 mps 748 mmHg 41%
    15:00 +13°C° 0 mm 0 mps 748 mmHg 45%
    16:00 +12°C° 0 mm 0 mps 748 mmHg 49%
    17:00 +11°C° 0 mm 0 mps 748 mmHg 53%
    18:00 +10°C° 0 mm 0 mps 748 mmHg 53%
    19:00 +10°C° 0 mm 0 mps 749 mmHg 52%
    20:00 +10°C° 0 mm 0 mps 749 mmHg 52%
    21:00 +10°C° 0 mm 0 mps 749 mmHg 52%
    22:00 +10°C° 0 mm 0 mps 749 mmHg 53%
    23:00 +9°C° 0 mm 0 mps 749 mmHg 53%

    19 December, Thursday

    Time Temperature Precipitation Wind Pressure Humidity
    00:00 +9°C° 0 mm 0 mps 749 mmHg 53%
    01:00 +9°C° 0 mm 0 mps 748 mmHg 54%
    02:00 +9°C° 0 mm 0 mps 748 mmHg 54%
    03:00 +9°C° 0 mm 0 mps 748 mmHg 54%
    04:00 +8°C° 0 mm 0 mps 748 mmHg 54%
    05:00 +8°C° 0 mm 0 mps 748 mmHg 54%
    06:00 +8°C° 0 mm 0 mps 748 mmHg 53%
    07:00 +8°C° 0 mm 0 mps 748 mmHg 52%
    08:00 +8°C° 0 mm 0 mps 748 mmHg 52%
    09:00 +9°C° 0 mm 0 mps 748 mmHg 49%
    10:00 +11°C° 0 mm 0 mps 748 mmHg 46%
    11:00 +12°C° 0 mm 0 mps 748 mmHg 43%
    12:00 +13°C° 0 mm 0 mps 747 mmHg 43%
    13:00 +13°C° 0 mm 0 mps 747 mmHg 43%
    14:00 +14°C° 0 mm 0 mps 746 mmHg 42%
    15:00 +13°C° 0 mm 0 mps 746 mmHg 43%
    16:00 +12°C° 0 mm 0 mps 746 mmHg 44%
    17:00 +13°C° 0 mm 1 mps 746 mmHg 46%
    18:00 +12°C° 0 mm 1 mps 746 mmHg 47%
    19:00 +12°C° 0 mm 1 mps 746 mmHg 48%
    20:00 +11°C° 0 mm 1 mps 746 mmHg 49%
    21:00 +11°C° 0 mm 1 mps 746 mmHg 51%
    22:00 +10°C° 0 mm 2 mps 746 mmHg 53%
    23:00 +10°C° 0 mm 2 mps 746 mmHg 55%

    20 December, Friday

    Time Temperature Precipitation Wind Pressure Humidity
    00:00 +9°C° 0 mm 2 mps 746 mmHg 57%
    01:00 +9°C° 0 mm 2 mps 745 mmHg 60%
    02:00 +9°C° 0 mm 2 mps 745 mmHg 62%
    03:00 +9°C° 0 mm 2 mps 745 mmHg 65%
    04:00 +9°C° 0 mm 2 mps 745 mmHg 67%
    05:00 +9°C° 0 mm 3 mps 745 mmHg 70%
    06:00 +9°C° 0 mm 3 mps 745 mmHg 69%
    07:00 +9°C° 0 mm 3 mps 745 mmHg 69%
    08:00 +9°C° 0 mm 2 mps 745 mmHg 68%
    09:00 +12°C° 0 mm 2 mps 745 mmHg 63%
    10:00 +13°C° 0 mm 2 mps 745 mmHg 59%
    11:00 +15°C° 0 mm 2 mps 745 mmHg 54%
    12:00 +16°C° 0 mm 1 mps 745 mmHg 52%
    13:00 +18°C° 0 mm 1 mps 744 mmHg 50%
    14:00 +18°C° 0 mm 1 mps 744 mmHg 48%
    15:00 +18°C° 0 mm 1 mps 744 mmHg 51%
    16:00 +16°C° 0 mm 1 mps 744 mmHg 54%
    17:00 +15°C° 0 mm 1 mps 744 mmHg 57%
    18:00 +15°C° 0 mm 1 mps 743 mmHg 59%
    19:00 +14°C° 0 mm 1 mps 743 mmHg 61%
    20:00 +14°C° 0 mm 2 mps 743 mmHg 63%
    21:00 +14°C° 0 mm 2 mps 743 mmHg 62%
    22:00 +14°C° 0 mm 2 mps 743 mmHg 61%
    23:00 +13°C° 0 mm 2 mps 743 mmHg 60%
    Show more